Temperature
8 8 8 8 8 8 9 9 9 9 10 10 10 10 11 11 11 11 11 11 11 11 11 11 11 11 11 11 11 11 10 10 10 10 10 10 10 10 10 10 10 10 10
7 7 7 7 7 8 8 8 9 9 9 9 10 10 10 10 10 10 11 11 11 11 11 11 11 11 10 10 10 10 10 10 10 10 9 9 9 9 9 9 9 10 10
7 7 7 7 7 7 7 8 8 8 8 9 9 9 10 10 10 10 10 10 10 11 11 11 11 11 10 10 10 10 10 10 9 9 9 9 9 9 9 9 9 9 9
6 6 6 6 6 6 7 7 7 8 8 8 9 9 9 9 10 10 10 10 10 10 10 10 10 10 10 10 10 10 10 10 9 9 9 9 9 9 8 8 9 9 9
5 5 5 6 6 6 6 6 7 7 7 8 8 8 9 9 9 9 9 10 10 10 10 10 10 10 10 10 10 9 9 9 9 9 9 9 9 9 8 8 8 9 9
4 4 5 5 5 6 6 6 6 7 7 7 8 8 8 8 9 9 9 9 9 9 9 9 10 10 10 9 9 9 9 9 9 9 9 9 9 8 8 8 8 8 8
4 4 4 4 4 5 5 5 6 6 6 7 7 7 8 8 8 9 9 9 9 9 9 9 9 9 9 9 9 9 9 9 9 8 8 8 8 8 8 8 8 7 8
3 3 3 4 4 4 5 5 5 5 6 6 7 7 7 7 8 8 8 8 9 9 9 9 9 9 9 9 9 9 9 8 8 8 8 8 8 8 8 8 7 7 7
3 3 3 3 4 4 4 4 5 5 5 6 6 6 6 7 7 7 8 8 8 8 8 8 8 8 8 8 8 8 8 8 8 8 8 7 7 7 7 7 7 7 7
2 2 2 3 3 3 4 4 4 5 5 5 5 6 6 6 6 7 7 7 8 8 8 8 8 8 8 8 8 8 8 7 7 7 7 7 7 7 7 7 7 7 7
2 2 2 2 2 3 3 3 4 4 4 4 5 5 5 6 6 6 7 7 7 7 7 8 8 8 8 8 7 7 7 7 7 7 7 7 7 7 7 7 7 7 6
1 1 2 2 2 2 3 3 3 3 4 4 4 4 5 5 5 6 6 6 7 7 7 7 7 7 7 7 7 7 7 7 7 7 7 7 7 7 6 6 6 6 6
0 1 1 1 1 2 2 2 2 3 3 3 4 4 4 4 5 5 6 6 6 6 6 7 7 7 7 7 7 7 7 7 7 7 7 6 6 6 6 6 6 6 6
-0 -0 0 0 1 1 1 2 2 2 2 3 3 3 3 4 4 5 5 5 5 6 6 6 6 6 6 6 6 6 6 6 6 6 6 6 6 6 6 6 6 6 5
-2 -1 -1 -0 0 1 1 1 2 2 2 2 2 3 3 3 4 4 4 4 5 5 5 5 6 6 6 6 6 5 6 6 6 6 6 6 6 6 6 5 5 5 5
-3 -2 -2 -1 -1 -0 0 1 1 1 1 1 2 2 2 3 3 3 4 4 4 4 5 5 5 5 5 5 5 5 5 5 5 5 5 5 5 5 5 5 5 5 5
-3 -3 -2 -2 -2 -1 -0 0 0 1 1 1 1 2 2 2 2 3 3 3 4 4 4 4 4 4 5 5 5 4 4 4 5 5 5 5 5 4 4 4 4 4 4
-3 -3 -3 -2 -2 -1 -1 -0 -0 0 0 1 1 1 1 1 2 2 2 3 3 3 3 4 4 4 4 4 4 4 4 4 4 4 4 4 4 4 4 4 4 4 4
-4 -3 -3 -3 -2 -2 -1 -1 -1 -0 -0 -0 0 1 1 1 1 1 2 2 2 2 2 3 3 3 3 3 3 3 3 3 3 3 3 3 4 4 3 3 3 3 3
-4 -4 -3 -3 -2 -2 -2 -1 -1 -1 -1 -1 -0 0 0 0 1 1 1 1 1 1 2 2 2 2 2 2 3 3 2 2 3 3 3 3 3 3 3 3 3 3 3
-4 -4 -3 -3 -3 -2 -2 -2 -2 -2 -1 -1 -1 -0 -0 -0 0 0 0 0 1 1 1 1 1 1 1 2 2 2 2 2 2 2 2 2 2 2 2 2 2 2 2
-4 -4 -4 -4 -3 -3 -3 -2 -2 -2 -2 -2 -1 -1 -1 -1 -1 -1 -0 -0 -0 0 0 0 0 1 1 1 1 1 1 1 1 1 1 1 1 1 2 2 1 1 1
-5 -5 -5 -4 -4 -3 -3 -3 -3 -2 -2 -2 -2 -1 -1 -1 -1 -1 -1 -1 -1 -1 -1 -0 -0 -0 -0 -0 0 0 0 0 0 0 1 1 1 1 1 1 1 0 0
-6 -5 -5 -5 -4 -4 -4 -3 -3 -3 -3 -2 -2 -2 -2 -2 -2 -2 -2 -2 -1 -1 -1 -1 -1 -1 -1 -1 -1 -0 -0 -0 -0 -0 -0 -0 -0 -0 -0 -0 -0 -0 -0
-6 -6 -6 -5 -5 -4 -4 -4 -4 -3 -3 -3 -3 -3 -2 -2 -2 -2 -2 -2 -2 -2 -2 -1 -1 -1 -1 -1 -1 -1 -1 -1 -1 -1 -1 -1 -1 -1 -1 -1 -1 -1 -1
-7 -6 -6 -6 -5 -5 -5 -4 -4 -4 -4 -3 -3 -3 -3 -3 -3 -3 -3 -3 -3 -2 -2 -2 -2 -2 -2 -2 -2 -2 -2 -2 -2 -2 -2 -2 -2 -2 -2 -2 -2 -2 -2
Wind_Speed
2 1 2 2 3 3 3 4 3 3 3 3 3 3 3 4 3 5 7 8 8 8 7 6 6 6 4 5 5 5 6 4 4 3 2 2 2 2 2 4 4 4 5
1 1 1 1 2 3 4 4 3 3 3 3 3 3 3 3 3 3 6 8 8 8 7 7 6 6 4 5 6 5 4 3 3 3 3 1 1 0 1 2 2 3 4
2 1 1 1 1 2 3 4 3 3 3 3 2 3 3 2 3 3 4 5 8 8 8 7 6 6 5 5 6 6 6 5 3 2 3 3 2 1 0 2 2 2 2
2 1 1 1 0 1 2 3 3 2 2 3 4 5 4 4 4 4 4 5 8 8 8 8 7 6 5 4 5 5 4 5 4 2 1 2 3 2 1 1 1 2 2
1 1 1 1 1 1 1 2 2 2 1 3 3 4 3 3 3 4 5 5 5 7 8 8 7 6 5 5 5 5 5 4 4 3 2 1 1 2 2 2 1 1 2
1 0 1 1 2 1 1 1 2 2 1 2 2 2 3 4 5 5 5 5 4 4 6 7 7 6 5 5 5 6 6 4 4 3 3 3 2 2 2 2 2 2 2
1 0 1 1 1 1 1 1 2 2 1 1 2 2 2 3 5 5 5 5 5 4 6 5 5 5 5 6 5 5 5 5 5 4 3 3 2 2 2 2 2 1 1
1 1 1 1 1 2 1 1 1 2 2 2 2 2 2 2 2 3 4 4 4 5 6 6 6 5 6 5 5 5 4 4 4 4 4 3 2 2 2 3 2 1 1
2 2 2 2 2 1 1 1 2 2 2 2 2 2 1 1 2 2 2 2 3 4 6 6 6 5 6 5 5 4 4 5 5 4 4 3 3 2 2 3 3 3 3
3 2 2 1 1 1 1 1 1 2 2 1 2 2 2 1 2 3 3 2 3 3 5 6 6 6 5 5 5 4 4 5 4 4 4 3 2 2 2 3 3 2 3
3 2 2 2 1 1 2 1 2 2 2 2 2 1 1 1 2 2 2 2 2 3 5 5 6 6 6 5 5 5 5 6 5 4 5 4 3 3 3 3 3 3 3
5 4 3 2 2 2 2 1 2 2 2 1 2 1 1 1 2 3 2 2 2 2 3 4 5 5 5 5 6 6 6 6 6 6 5 5 4 4 3 3 4 3 3
6 5 4 3 2 2 2 2 1 1 2 2 2 2 1 1 1 2 2 2 2 2 3 4 5 5 5 5 5 6 6 6 6 6 6 5 5 5 4 4 4 3 3
6 5 5 5 4 3 2 1 1 2 1 1 1 1 1 0 1 1 2 2 2 2 3 3 4 4 5 5 5 5 5 5 5 5 5 5 6 6 6 5 5 4 4
8 7 6 5 5 5 3 2 1 1 1 1 1 0 1 1 0 1 1 1 1 1 2 3 3 3 4 4 5 5 5 5 5 4 4 4 5 6 6 5 5 5 4
8 8 8 7 6 6 5 4 2 1 1 1 0 1 1 1 1 1 1 1 1 1 2 2 3 4 3 4 5 5 5 5 5 5 4 4 4 5 6 5 6 6 6
8 7 7 7 7 6 6 4 3 2 1 1 1 1 1 1 1 1 1 1 1 1 1 1 2 3 3 4 5 5 4 5 5 5 4 3 3 4 3 4 4 4 5
7 7 7 7 7 6 6 5 4 2 1 1 1 1 1 1 1 1 1 1 1 1 1 1 1 2 2 4 5 4 3 4 4 4 5 5 4 4 4 3 3 2 2
7 6 6 6 6 6 6 5 4 3 2 1 1 1 0 0 0 1 0 0 1 1 1 1 1 1 2 3 5 4 3 3 3 3 3 4 4 5 5 4 4 2 1
7 7 7 6 6 6 6 5 4 3 2 2 2 1 1 0 0 0 0 0 1 1 1 1 1 1 1 2 3 4 3 3 3 2 3 4 5 6 6 5 5 4 2
8 7 7 6 6 6 5 4 4 4 3 3 2 2 1 1 0 0 0 1 1 1 1 1 1 1 1 1 3 4 3 4 3 3 2 2 4 5 4 4 4 5 3
8 7 6 6 6 5 5 4 5 4 3 3 2 2 1 1 1 1 0 1 1 2 1 1 1 1 0 1 2 2 3 3 3 3 3 3 4 4 3 3 4 5 3
8 7 6 6 6 5 5 5 5 5 3 2 2 2 2 1 1 0 1 1 1 1 1 1 1 0 1 1 1 2 2 2 2 2 3 3 4 3 2 3 4 3 3
7 7 6 6 6 6 5 5 6 5 3 2 2 1 1 1 1 1 0 1 1 1 1 1 1 1 1 1 1 1 2 3 2 2 3 3 2 2 2 2 2 1 2
7 6 5 6 6 6 6 6 5 4 3 2 2 2 1 1 1 2 1 1 0 1 2 2 2 2 1 1 1 1 1 1 2 2 1 1 1 2 1 1 1 1 2
6 6 6 6 6 6 6 5 5 3 3 2 2 1 1 1 1 1 2 4 3 3 2 1 0 0 1 1 1 1 1 2 3 1 2 2 2 2 2 2 2 2 2
Wind_Direction
237 232 233 182 167 168 174 171 164 159 142 147 152 154 163 153 143 139 142 145 145 145 138 137 141 138 145 151 142 130 128 122 118 101 93 66 87 97 99 106 111 113 116
273 232 230 179 176 170 173 169 165 165 160 166 171 165 164 164 147 137 146 147 146 149 151 146 148 145 146 149 148 135 136 141 141 129 128 118 66 352 116 122 130 126 124
280 256 236 239 165 165 173 180 180 174 164 155 151 139 131 149 156 161 166 155 152 151 152 152 146 147 149 159 158 154 147 157 167 146 141 145 186 177 207 173 144 137 128
313 340 352 331 2 169 166 171 177 164 152 144 159 162 165 173 177 166 162 160 156 153 156 155 150 147 152 157 163 157 153 154 165 171 154 144 132 140 166 233 173 150 154
335 332 330 332 18 53 128 161 165 153 146 157 169 162 165 165 163 158 155 165 157 155 159 157 156 153 157 161 164 162 161 164 165 166 168 146 102 117 149 190 202 206 204
330 359 9 19 40 59 77 127 151 145 146 156 158 156 158 160 159 159 163 169 165 157 157 159 158 159 160 167 171 167 172 176 172 170 163 157 160 178 163 176 191 205 215
304 61 46 33 44 67 79 90 141 142 142 151 149 156 164 178 175 169 171 169 169 164 165 159 161 161 163 169 169 167 174 176 176 180 181 180 185 170 163 166 181 186 207
3 52 80 58 63 71 82 97 138 129 141 159 160 158 166 188 187 173 169 168 170 168 164 164 162 163 165 170 173 171 178 175 181 187 186 188 197 181 165 168 163 179 222
33 39 46 61 58 61 65 114 159 147 151 171 162 153 155 178 177 156 143 153 151 158 161 164 167 169 168 173 171 173 182 182 188 192 192 193 199 191 184 170 165 174 207
22 35 27 33 50 63 77 91 100 132 149 146 139 156 161 168 164 150 146 148 157 157 160 165 168 170 172 175 179 180 179 183 192 187 188 199 197 186 184 182 189 192 192
0 16 15 15 37 75 85 78 88 83 89 89 76 82 128 154 148 147 150 154 166 163 162 168 171 173 171 172 180 186 183 191 195 191 193 201 191 187 191 189 192 206 192
4 -0 357 7 40 63 70 72 77 82 91 100 104 94 70 124 160 159 166 161 169 173 169 168 172 173 171 172 177 185 188 190 192 192 192 199 194 197 199 197 204 210 203
2 360 358 3 29 43 46 53 73 75 93 87 94 105 107 122 165 164 171 174 174 182 179 175 172 174 175 180 184 184 189 191 193 191 192 195 192 202 204 201 205 206 205
0 1 1 3 10 18 27 29 43 65 70 79 79 77 93 137 189 166 169 180 178 184 186 183 178 177 176 179 182 184 191 192 193 192 193 194 196 201 202 205 204 195 191
359 2 0 357 359 359 359 7 16 42 46 61 86 50 23 46 95 158 167 174 176 197 188 178 174 169 174 180 179 187 193 193 194 194 195 197 200 202 202 205 198 189 189
349 351 351 353 352 348 346 347 349 6 35 54 32 42 56 59 72 112 146 156 151 151 157 174 174 173 184 178 180 187 189 192 195 198 199 199 197 196 199 204 199 192 190
337 340 340 339 339 338 335 334 333 348 20 28 24 27 48 47 44 42 84 106 121 103 122 163 174 172 179 176 180 194 194 190 196 197 193 196 197 187 183 190 185 188 196
334 337 335 332 332 332 331 334 333 327 350 11 14 35 43 42 39 49 68 87 113 133 122 137 169 178 195 183 178 189 196 191 192 192 190 188 186 177 169 163 164 177 199
329 328 327 325 328 332 333 338 337 336 343 333 341 6 43 45 83 77 64 40 116 130 123 136 142 180 217 204 190 189 191 186 190 190 186 183 184 180 169 168 172 172 183
337 335 333 334 337 336 337 340 335 344 351 347 341 341 345 321 299 97 52 36 94 139 128 94 118 168 201 207 189 188 183 183 180 176 181 185 188 183 177 181 180 191 199
332 337 337 336 334 335 339 337 341 341 338 347 353 356 1 340 320 58 79 119 124 126 121 105 64 85 206 203 196 194 188 182 180 184 184 183 174 177 181 192 193 194 182
334 335 334 330 333 339 342 338 332 331 340 354 1 357 359 349 346 89 107 142 152 143 126 111 63 43 66 176 183 184 189 183 177 186 183 175 167 170 175 189 175 165 158
328 330 329 326 332 336 340 330 325 333 339 353 355 1 4 13 17 107 154 148 158 166 165 149 159 79 46 70 123 147 143 147 161 162 162 163 159 156 160 161 166 161 164
326 329 331 330 330 334 338 331 329 332 337 348 350 356 17 17 25 23 32 153 169 177 187 175 162 138 93 83 108 148 127 112 117 126 136 137 128 119 130 147 155 168 181
324 327 328 325 325 330 330 329 331 338 340 346 347 350 4 29 41 30 15 10 257 211 207 196 187 186 197 222 208 198 187 174 175 153 141 144 147 153 158 150 150 164 177
320 322 322 320 321 327 330 331 334 338 338 341 339 337 343 14 45 52 26 23 22 27 25 7 259 298 251 208 207 212 207 204 180 168 178 190 190 190 194 195 198 194 191
Height
1483 1483 1484 1486 1487 1488 1490 1492 1494 1496 1498 1501 1504 1506 1509 1512 1515 1518 1521 1524 1528 1531 1533 1536 1539 1541 1544 1546 1549 1551 1554 1557 1559 1561 1563 1565 1567 1568 1569 1569 1570 1571 1572
1480 1480 1481 1482 1483 1485 1486 1488 1490 1492 1495 1498 1501 1504 1506 1509 1512 1515 1518 1521 1524 1527 1530 1533 1536 1539 1541 1544 1546 1549 1552 1554 1557 1559 1561 1563 1566 1566 1567 1568 1568 1569 1570
1477 1477 1478 1479 1480 1481 1483 1485 1487 1489 1492 1495 1498 1500 1503 1505 1508 1511 1514 1518 1521 1524 1527 1530 1533 1536 1538 1541 1544 1546 1549 1551 1554 1556 1559 1560 1561 1563 1565 1566 1567 1567 1568
1475 1475 1475 1476 1477 1479 1481 1482 1484 1486 1489 1491 1494 1496 1498 1501 1504 1508 1511 1514 1517 1521 1524 1527 1530 1533 1536 1539 1541 1544 1546 1549 1551 1554 1556 1558 1558 1561 1562 1564 1564 1565 1565
1472 1472 1473 1473 1474 1476 1478 1480 1482 1483 1486 1488 1491 1493 1496 1498 1501 1505 1508 1511 1514 1517 1520 1523 1526 1530 1533 1535 1538 1541 1543 1546 1548 1550 1553 1555 1556 1558 1559 1560 1561 1562 1563
1470 1470 1471 1471 1472 1473 1475 1477 1479 1480 1482 1485 1487 1490 1493 1495 1498 1501 1504 1508 1510 1514 1517 1519 1523 1526 1529 1532 1535 1537 1540 1543 1545 1547 1549 1551 1553 1555 1556 1557 1558 1559 1560
1469 1468 1468 1469 1470 1471 1472 1474 1476 1477 1480 1482 1484 1487 1490 1493 1495 1498 1501 1504 1506 1509 1513 1516 1519 1522 1525 1528 1531 1533 1536 1539 1541 1544 1546 1548 1550 1551 1553 1554 1555 1556 1557
1468 1467 1467 1468 1469 1469 1471 1472 1474 1475 1477 1480 1482 1485 1486 1489 1492 1495 1498 1500 1503 1506 1510 1513 1516 1519 1522 1525 1528 1530 1533 1536 1538 1540 1542 1544 1546 1548 1549 1551 1552 1552 1553
1467 1467 1467 1467 1468 1468 1470 1471 1473 1474 1476 1478 1479 1481 1483 1486 1488 1491 1494 1497 1500 1503 1506 1510 1513 1516 1518 1521 1524 1526 1529 1532 1534 1537 1539 1541 1542 1544 1546 1547 1549 1550 1550
1466 1466 1466 1466 1467 1468 1469 1470 1471 1472 1474 1476 1476 1478 1480 1483 1485 1488 1491 1494 1497 1500 1502 1506 1509 1512 1515 1518 1520 1523 1526 1528 1530 1533 1535 1537 1539 1541 1542 1543 1545 1546 1547
1466 1466 1466 1466 1466 1466 1467 1468 1469 1470 1471 1473 1474 1475 1477 1480 1482 1484 1487 1491 1494 1496 1499 1502 1504 1508 1511 1514 1517 1519 1522 1524 1526 1528 1530 1532 1535 1536 1538 1539 1540 1542 1543
1467 1467 1466 1465 1465 1465 1466 1466 1467 1468 1469 1470 1471 1473 1475 1477 1479 1481 1484 1487 1490 1492 1495 1498 1501 1504 1506 1509 1512 1514 1517 1519 1522 1524 1526 1528 1530 1532 1533 1535 1536 1537 1538
1468 1467 1465 1465 1464 1464 1465 1465 1465 1466 1467 1468 1470 1471 1473 1474 1476 1478 1481 1484 1487 1489 1491 1494 1497 1499 1502 1505 1507 1510 1513 1515 1517 1519 1521 1523 1525 1526 1528 1530 1531 1532 1534
1468 1467 1465 1464 1464 1464 1464 1464 1464 1465 1466 1467 1467 1468 1470 1471 1473 1476 1478 1481 1483 1486 1488 1490 1493 1495 1497 1500 1503 1506 1508 1510 1512 1514 1516 1518 1520 1522 1523 1525 1526 1528 1528
1469 1467 1466 1465 1463 1463 1462 1462 1462 1463 1464 1465 1466 1467 1468 1469 1471 1473 1475 1477 1480 1482 1484 1486 1488 1491 1493 1496 1499 1501 1503 1505 1507 1509 1511 1513 1515 1517 1518 1520 1521 1522 1523
1471 1468 1466 1464 1463 1462 1461 1461 1461 1462 1462 1463 1464 1465 1465 1467 1468 1470 1472 1474 1476 1478 1480 1482 1484 1487 1489 1492 1495 1497 1499 1501 1503 1504 1506 1508 1510 1512 1514 1515 1516 1518 1518
1472 1470 1467 1465 1463 1462 1461 1460 1460 1460 1460 1461 1462 1462 1463 1464 1465 1467 1468 1470 1472 1474 1476 1479 1481 1483 1486 1488 1490 1492 1494 1496 1498 1500 1502 1504 1506 1507 1509 1510 1512 1513 1514
1471 1469 1467 1465 1463 1462 1460 1459 1459 1458 1458 1459 1460 1460 1461 1462 1463 1464 1466 1467 1469 1471 1473 1475 1478 1480 1482 1484 1486 1488 1489 1491 1493 1495 1497 1499 1501 1503 1504 1505 1506 1508 1509
1471 1469 1467 1465 1463 1461 1459 1458 1457 1457 1456 1456 1457 1458 1459 1460 1461 1462 1464 1465 1467 1469 1470 1472 1474 1476 1478 1479 1481 1483 1485 1486 1488 1490 1492 1494 1496 1498 1500 1501 1501 1503 1504
1470 1467 1465 1463 1461 1459 1458 1457 1456 1456 1455 1455 1455 1456 1457 1459 1460 1460 1462 1463 1464 1466 1467 1469 1471 1472 1474 1475 1477 1479 1480 1482 1484 1486 1488 1490 1491 1493 1495 1496 1497 1498 1499
1468 1466 1463 1461 1460 1459 1457 1456 1455 1455 1455 1454 1455 1455 1456 1457 1458 1459 1460 1461 1462 1463 1464 1466 1467 1469 1471 1472 1473 1475 1476 1478 1479 1481 1483 1485 1487 1489 1490 1491 1492 1493 1495
1466 1464 1462 1460 1459 1457 1456 1455 1454 1454 1454 1453 1454 1454 1454 1454 1455 1456 1457 1459 1459 1460 1461 1463 1464 1466 1468 1469 1470 1472 1473 1475 1476 1477 1479 1481 1483 1484 1485 1486 1488 1489 1491
1464 1462 1460 1458 1457 1456 1455 1454 1453 1453 1452 1452 1452 1452 1453 1453 1454 1454 1455 1456 1456 1458 1459 1460 1461 1463 1465 1466 1467 1469 1470 1471 1473 1474 1475 1477 1478 1479 1481 1482 1484 1485 1486
1463 1460 1458 1456 1455 1454 1454 1453 1452 1452 1451 1450 1450 1451 1451 1451 1452 1452 1453 1453 1454 1455 1457 1458 1459 1460 1461 1463 1464 1466 1467 1468 1469 1470 1472 1473 1474 1475 1477 1478 1480 1481 1482
1461 1459 1457 1455 1454 1453 1452 1452 1451 1451 1450 1449 1449 1449 1449 1450 1450 1450 1451 1452 1453 1454 1454 1455 1457 1457 1458 1460 1462 1463 1464 1465 1466 1467 1468 1469 1470 1471 1473 1474 1475 1477 1478
1460 1458 1456 1454 1453 1452 1451 1450 1450 1449 1448 1447 1447 1447 1447 1448 1448 1448 1449 1449 1450 1451 1452 1453 1454 1455 1457 1458 1460 1461 1462 1463 1464 1465 1465 1465 1466 1467 1469 1470 1471 1472 1473